Location: Shenandoah County Park
(38.9356°N, 78.4524°W)
Time: 05:42:03
(UTC-04:00)

A-11 Canister half - Pass Details

Date: 11 December 2023
Orbit: 1524 x 1684 km, 47.3° (Epoch: 02 October)

Event Time Altitude Azimuth Distance (km) Brightness Sun altitude
Rises 20:58:03 0° 286° (WNW) 4,939 12.4 -47.0°
Reaches altitude 10° 21:01:22 10° 291° (WNW) 3,949 11.6 -47.7°
Enters shadow 21:07:32 39° 314° (NW) 2,354 10.0 -48.8°
